START_TIME,STEP,MOV.,M35,t_acc.,PL05,t_acc.,PL06,t_acc.,PL07,t_acc.
1989-08-24T12:00:24.790 ,1,0,0.,4.8,3.,4.8,0.,4.8,0.,4.8
1989-08-24T12:00:29.590 ,1,0,0.,4.8,0.,4.8,0.,4.8,0.,4.8
1989-08-24T12:00:34.390 ,1,0,0.,4.8,2.,4.8,0.,4.8,0.,4.8
1989-08-24T12:00:39.190 ,1,0,0.,4.8,1.,4.8,0.,4.8,0.,4.8
1989-08-24T12:00:43.990 ,1,0,0.,4.8,0.,4.8,0.,4.8,0.,4.8
1989-08-24T12:00:48.780 ,0,0,0.,4.8,2.,4.8,0.,4.8,0.,4.8
1989-08-24T12:00:53.590 ,0,0,0.,4.8,0.,4.8,0.,4.8,0.,4.8
1989-08-24T12:00:58.390 ,0,0,0.,4.8,6.,4.8,0.,4.8,0.,4.8
1989-08-24T12:01:03.190 ,0,0,0.,4.8,2.,4.8,2.,4.8,0.,4.8
1989-08-24T12:01:07.990 ,0,0,0.,4.8,0.,4.8,1.,4.8,0.,4.8
1989-08-24T12:01:12.790 ,0,0,0.,4.8,1.,4.8,0.,4.8,0.,4.8
1989-08-24T12:01:17.590 ,0,0,0.,4.8,1.,4.8,0.,4.8,0.,4.8
1989-08-24T12:01:22.390 ,0,0,0.,4.8,0.,4.8,0.,4.8,0.,4.8
1989-08-24T12:01:27.190 ,0,0,0.,4.8,0.,4.8,0.,4.8,0.,4.8
1989-08-24T12:01:31.990 ,0,0,0.,4.8,1.,4.8,0.,4.8,0.,4.8
1989-08-24T12:01:36.790 ,0,0,0.,4.8,0.,4.8,0.,4.8,0.,4.8
1989-08-24T12:01:41.590 ,0,0,0.,4.8,0.,4.8,0.,4.8,0.,4.8
1989-08-24T12:01:46.390 ,0,0,0.,4.8,1.,4.8,0.,4.8,0.,4.8
1989-08-24T12:01:51.190 ,0,0,0.,4.8,1.,4.8,0.,4.8,2.,4.8
1989-08-24T12:01:55.990 ,0,0,0.,4.8,2.,4.8,0.,4.8,0.,4.8
1989-08-24T12:02:00.790 ,0,0,0.,4.8,0.,4.8,0.,4.8,0.,4.8
1989-08-24T12:02:05.590 ,0,0,0.,4.8,3.,4.8,0.,4.8,0.,4.8
1989-08-24T12:02:10.390 ,0,0,0.,4.8,0.,4.8,1.,4.8,0.,4.8
1989-08-24T12:02:15.190 ,0,0,0.,4.8,0.,4.8,0.,4.8,0.,4.8
1989-08-24T12:02:19.990 ,0,0,0.,4.8,1.,4.8,1.,4.8,0.,4.8
1989-08-24T12:02:24.790 ,1,0,0.,4.8,1.,4.8,0.,4.8,0.,4.8
1989-08-24T12:02:29.580 ,1,0,0.,4.8,1.,4.8,0.,4.8,0.,4.8
1989-08-24T12:02:34.390 ,1,0,0.,4.8,0.,4.8,1.,4.8,0.,4.8
1989-08-24T12:02:39.180 ,1,0,0.,4.8,0.,4.8,0.,4.8,0.,4.8
1989-08-24T12:02:43.990 ,1,0,0.,4.8,2.,4.8,2.,4.8,0.,4.8
1989-08-24T12:02:48.790 ,1,0,0.,4.8,0.,4.8,0.,4.8,0.,4.8
1989-08-24T12:02:53.590 ,1,0,0.,4.8,1.,4.8,0.,4.8,0.,4.8
1989-08-24T12:02:58.390 ,1,0,0.,4.8,1.,4.8,0.,4.8,0.,4.8
1989-08-24T12:03:03.180 ,1,0,0.,4.8,1.,4.8,0.,4.8,0.,4.8
1989-08-24T12:03:07.990 ,1,0,0.,4.8,1.,4.8,0.,4.8,0.,4.8
1989-08-24T12:03:12.780 ,2,0,0.,4.8,0.,4.8,0.,4.8,0.,4.8
1989-08-24T12:03:17.580 ,2,0,0.,4.8,3.,4.8,0.,4.8,0.,4.8
1989-08-24T12:03:22.380 ,2,0,0.,4.8,0.,4.8,0.,4.8,0.,4.8
1989-08-24T12:03:27.180 ,2,0,0.,4.8,0.,4.8,0.,4.8,0.,4.8
1989-08-24T12:03:31.990 ,2,0,0.,4.8,0.,4.8,0.,4.8,0.,4.8
1989-08-24T12:03:36.780 ,2,0,0.,4.8,2.,4.8,0.,4.8,0.,4.8
1989-08-24T12:03:41.590 ,2,0,0.,4.8,1.,4.8,0.,4.8,0.,4.8
1989-08-24T12:03:46.390 ,2,0,0.,4.8,1.,4.8,0.,4.8,0.,4.8
1989-08-24T12:03:51.180 ,2,0,0.,4.8,1.,4.8,0.,4.8,0.,4.8
1989-08-24T12:03:55.990 ,2,0,0.,4.8,1.,4.8,0.,4.8,0.,4.8
1989-08-24T12:04:00.780 ,3,0,0.,4.8,2.,4.8,0.,4.8,0.,4.8
1989-08-24T12:04:05.580 ,3,0,0.,4.8,0.,4.8,0.,4.8,0.,4.8
1989-08-24T12:04:10.390 ,3,0,0.,4.8,2.,4.8,0.,4.8,0.,4.8
1989-08-24T12:04:15.190 ,3,0,0.,4.8,0.,4.8,1.,4.8,1.,4.8
1989-08-24T12:04:19.990 ,3,0,0.,4.8,1.,4.8,0.,4.8,0.,4.8
1989-08-24T12:04:24.790 ,3,0,0.,4.8,2.,4.8,0.,4.8,0.,4.8
1989-08-24T12:04:29.590 ,3,0,0.,4.8,0.,4.8,0.,4.8,0.,4.8
1989-08-24T12:04:34.390 ,3,0,0.,4.8,0.,4.8,0.,4.8,0.,4.8
1989-08-24T12:04:39.190 ,3,0,0.,4.8,1.,4.8,1.,4.8,0.,4.8
1989-08-24T12:04:43.990 ,3,0,0.,4.8,0.,4.8,0.,4.8,0.,4.8
1989-08-24T12:04:48.790 ,4,0,0.,4.8,1.,4.8,0.,4.8,0.,4.8
1989-08-24T12:04:53.590 ,4,0,0.,4.8,1.,4.8,0.,4.8,0.,4.8
1989-08-24T12:04:58.390 ,4,0,0.,4.8,1.,4.8,0.,4.8,0.,4.8
1989-08-24T12:05:03.190 ,4,0,0.,4.8,0.,4.8,0.,4.8,0.,4.8
1989-08-24T12:05:07.990 ,4,0,0.,4.8,0.,4.8,0.,4.8,0.,4.8
1989-08-24T12:05:12.790 ,4,0,0.,4.8,2.,4.8,0.,4.8,0.,4.8
1989-08-24T12:05:17.590 ,4,0,0.,4.8,0.,4.8,0.,4.8,0.,4.8
1989-08-24T12:05:22.390 ,4,0,0.,4.8,0.,4.8,0.,4.8,0.,4.8
1989-08-24T12:05:27.190 ,4,0,0.,4.8,0.,4.8,0.,4.8,0.,4.8
1989-08-24T12:05:31.990 ,4,0,0.,4.8,1.,4.8,0.,4.8,0.,4.8
1989-08-24T12:05:36.790 ,5,0,0.,4.8,0.,4.8,0.,4.8,0.,4.8
1989-08-24T12:05:41.590 ,5,0,0.,4.8,3.,4.8,0.,4.8,1.,4.8
1989-08-24T12:05:46.390 ,5,0,0.,4.8,0.,4.8,0.,4.8,0.,4.8
1989-08-24T12:05:51.190 ,5,0,0.,4.8,0.,4.8,0.,4.8,0.,4.8
1989-08-24T12:05:55.990 ,5,0,0.,4.8,0.,4.8,0.,4.8,0.,4.8
1989-08-24T12:06:00.790 ,5,0,0.,4.8,0.,4.8,0.,4.8,0.,4.8
1989-08-24T12:06:05.590 ,5,0,0.,4.8,1.,4.8,0.,4.8,0.,4.8
1989-08-24T12:06:10.390 ,5,0,0.,4.8,0.,4.8,0.,4.8,0.,4.8
1989-08-24T12:06:15.190 ,5,0,0.,4.8,2.,4.8,0.,4.8,0.,4.8
1989-08-24T12:06:19.990 ,5,0,0.,4.8,1.,4.8,0.,4.8,0.,4.8
1989-08-24T12:06:24.790 ,6,0,0.,4.8,1.,4.8,1.,4.8,0.,4.8
1989-08-24T12:06:29.590 ,6,0,0.,4.8,0.,4.8,0.,4.8,0.,4.8
1989-08-24T12:06:34.390 ,6,0,0.,4.8,1.,4.8,0.,4.8,0.,4.8
1989-08-24T12:06:39.190 ,6,0,0.,4.8,1.,4.8,0.,4.8,0.,4.8
1989-08-24T12:06:43.990 ,6,0,0.,4.8,0.,4.8,0.,4.8,0.,4.8
1989-08-24T12:06:48.790 ,6,0,0.,4.8,0.,4.8,0.,4.8,0.,4.8
1989-08-24T12:06:53.590 ,6,0,0.,4.8,0.,4.8,0.,4.8,0.,4.8
1989-08-24T12:06:58.390 ,6,0,0.,4.8,0.,4.8,1.,4.8,0.,4.8
1989-08-24T12:07:03.190 ,6,0,0.,4.8,0.,4.8,0.,4.8,0.,4.8
1989-08-24T12:07:07.990 ,6,0,0.,4.8,0.,4.8,0.,4.8,0.,4.8
1989-08-24T12:07:12.790 ,7,0,0.,4.8,0.,4.8,0.,4.8,0.,4.8
1989-08-24T12:07:17.590 ,7,0,0.,4.8,0.,4.8,0.,4.8,0.,4.8
1989-08-24T12:07:22.390 ,7,0,0.,4.8,1.,4.8,0.,4.8,0.,4.8
1989-08-24T12:07:27.190 ,7,0,0.,4.8,0.,4.8,0.,4.8,0.,4.8
1989-08-24T12:07:31.990 ,7,0,0.,4.8,0.,4.8,0.,4.8,0.,4.8
1989-08-24T12:07:36.790 ,7,0,0.,4.8,0.,4.8,0.,4.8,0.,4.8
1989-08-24T12:07:41.590 ,7,0,0.,4.8,0.,4.8,0.,4.8,0.,4.8
1989-08-24T12:07:46.390 ,7,0,0.,4.8,0.,4.8,0.,4.8,0.,4.8
1989-08-24T12:07:51.190 ,7,0,0.,4.8,2.,4.8,0.,4.8,0.,4.8
1989-08-24T12:07:55.990 ,7,0,0.,4.8,1.,4.8,0.,4.8,0.,4.8
1989-08-24T12:08:00.790 ,7,0,0.,4.8,1.,4.8,0.,4.8,0.,4.8
1989-08-24T12:08:05.590 ,7,0,0.,4.8,0.,4.8,0.,4.8,0.,4.8
1989-08-24T12:08:10.390 ,7,0,0.,4.8,0.,4.8,0.,4.8,1.,4.8
1989-08-24T12:08:15.190 ,7,0,0.,4.8,0.,4.8,0.,4.8,0.,4.8
1989-08-24T12:08:19.990 ,7,0,0.,4.8,0.,4.8,0.,4.8,0.,4.8
1989-08-24T12:08:24.790 ,7,0,0.,4.8,1.,4.8,0.,4.8,0.,4.8
1989-08-24T12:08:29.590 ,7,0,0.,4.8,0.,4.8,1.,4.8,0.,4.8
1989-08-24T12:08:34.390 ,7,0,0.,4.8,1.,4.8,0.,4.8,0.,4.8
1989-08-24T12:08:39.180 ,7,0,0.,4.8,0.,4.8,0.,4.8,0.,4.8
1989-08-24T12:08:43.990 ,7,0,0.,4.8,1.,4.8,0.,4.8,0.,4.8
1989-08-24T12:08:48.790 ,6,0,0.,4.8,1.,4.8,0.,4.8,0.,4.8
1989-08-24T12:08:53.590 ,6,0,0.,4.8,0.,4.8,0.,4.8,0.,4.8
1989-08-24T12:08:58.390 ,6,0,0.,4.8,2.,4.8,0.,4.8,0.,4.8
1989-08-24T12:09:03.180 ,6,0,0.,4.8,0.,4.8,0.,4.8,0.,4.8
1989-08-24T12:09:07.990 ,6,0,0.,4.8,0.,4.8,0.,4.8,0.,4.8
1989-08-24T12:09:12.790 ,6,0,0.,4.8,0.,4.8,0.,4.8,0.,4.8
1989-08-24T12:09:17.590 ,6,0,0.,4.8,1.,4.8,0.,4.8,0.,4.8
1989-08-24T12:09:22.390 ,6,0,0.,4.8,0.,4.8,0.,4.8,0.,4.8
1989-08-24T12:09:27.180 ,6,0,0.,4.8,1.,4.8,0.,4.8,0.,4.8
1989-08-24T12:09:31.990 ,6,0,0.,4.8,0.,4.8,0.,4.8,0.,4.8
1989-08-24T12:09:36.790 ,5,0,0.,4.8,0.,4.8,1.,4.8,1.,4.8
1989-08-24T12:09:41.590 ,5,0,0.,4.8,0.,4.8,1.,4.8,0.,4.8
1989-08-24T12:09:46.390 ,5,0,0.,4.8,0.,4.8,0.,4.8,0.,4.8
1989-08-24T12:09:51.180 ,5,0,0.,4.8,1.,4.8,0.,4.8,1.,4.8
1989-08-24T12:09:55.990 ,5,0,0.,4.8,0.,4.8,0.,4.8,0.,4.8
1989-08-24T12:10:00.790 ,5,0,0.,4.8,1.,4.8,0.,4.8,0.,4.8
1989-08-24T12:10:05.590 ,5,0,0.,4.8,1.,4.8,0.,4.8,0.,4.8
1989-08-24T12:10:10.390 ,5,0,0.,4.8,0.,4.8,1.,4.8,0.,4.8
1989-08-24T12:10:15.180 ,5,0,0.,4.8,3.,4.8,0.,4.8,0.,4.8
1989-08-24T12:10:19.990 ,5,0,0.,4.8,0.,4.8,0.,4.8,0.,4.8
1989-08-24T12:10:24.790 ,4,0,0.,4.8,0.,4.8,0.,4.8,0.,4.8
1989-08-24T12:10:29.590 ,4,0,0.,4.8,0.,4.8,0.,4.8,0.,4.8
1989-08-24T12:10:34.390 ,4,0,0.,4.8,0.,4.8,0.,4.8,0.,4.8
1989-08-24T12:10:39.180 ,4,0,0.,4.8,0.,4.8,0.,4.8,0.,4.8
1989-08-24T12:10:43.990 ,4,0,0.,4.8,0.,4.8,0.,4.8,0.,4.8
1989-08-24T12:10:48.790 ,4,0,0.,4.8,1.,4.8,0.,4.8,0.,4.8
1989-08-24T12:10:53.590 ,4,0,0.,4.8,0.,4.8,0.,4.8,0.,4.8
1989-08-24T12:10:58.390 ,4,0,0.,4.8,0.,4.8,0.,4.8,0.,4.8
1989-08-24T12:11:03.180 ,4,0,0.,4.8,0.,4.8,0.,4.8,0.,4.8
1989-08-24T12:11:07.990 ,4,0,0.,4.8,2.,4.8,0.,4.8,0.,4.8
1989-08-24T12:11:12.790 ,3,0,0.,4.8,1.,4.8,2.,4.8,0.,4.8
1989-08-24T12:11:17.590 ,3,0,0.,4.8,2.,4.8,0.,4.8,0.,4.8
1989-08-24T12:11:22.390 ,3,0,0.,4.8,2.,4.8,0.,4.8,0.,4.8
1989-08-24T12:11:27.180 ,3,0,0.,4.8,2.,4.8,1.,4.8,0.,4.8
1989-08-24T12:11:31.990 ,3,0,0.,4.8,0.,4.8,0.,4.8,0.,4.8
1989-08-24T12:11:36.790 ,0,0,0.,4.8,2.,4.8,0.,4.8,0.,4.8
1989-08-24T12:11:41.590 ,0,0,0.,4.8,1.,4.8,0.,4.8,0.,4.8
1989-08-24T12:11:46.390 ,0,0,0.,4.8,0.,4.8,0.,4.8,0.,4.8
1989-08-24T12:11:51.180 ,0,0,0.,4.8,0.,4.8,0.,4.8,0.,4.8
1989-08-24T12:11:55.990 ,0,0,0.,4.8,1.,4.8,0.,4.8,0.,4.8
1989-08-24T12:12:00.780 ,2,0,0.,4.8,0.,4.8,0.,4.8,0.,4.8
1989-08-24T12:12:05.580 ,2,0,0.,4.8,1.,4.8,0.,4.8,0.,4.8
1989-08-24T12:12:10.380 ,2,0,0.,4.8,0.,4.8,0.,4.8,0.,4.8
1989-08-24T12:12:15.180 ,2,0,0.,4.8,2.,4.8,0.,4.8,0.,4.8
1989-08-24T12:12:19.980 ,2,0,0.,4.8,1.,4.8,0.,4.8,0.,4.8
1989-08-24T12:12:24.780 ,2,0,0.,4.8,0.,4.8,0.,4.8,0.,4.8
1989-08-24T12:12:29.580 ,2,0,0.,4.8,0.,4.8,0.,4.8,0.,4.8
1989-08-24T12:12:34.380 ,2,0,0.,4.8,0.,4.8,0.,4.8,1.,4.8
1989-08-24T12:12:39.180 ,2,0,0.,4.8,0.,4.8,0.,4.8,0.,4.8
1989-08-24T12:12:43.980 ,2,0,0.,4.8,1.,4.8,0.,4.8,0.,4.8
1989-08-24T12:12:48.780 ,1,0,0.,4.8,1.,4.8,0.,4.8,0.,4.8
1989-08-24T12:12:53.580 ,1,0,0.,4.8,2.,4.8,0.,4.8,0.,4.8
1989-08-24T12:12:58.380 ,1,0,0.,4.8,1.,4.8,1.,4.8,0.,4.8
1989-08-24T12:13:03.180 ,1,0,0.,4.8,1.,4.8,0.,4.8,0.,4.8
1989-08-24T12:13:07.980 ,1,0,0.,4.8,0.,4.8,0.,4.8,0.,4.8
1989-08-24T12:13:12.780 ,1,0,0.,4.8,0.,4.8,0.,4.8,0.,4.8
1989-08-24T12:13:17.580 ,1,0,0.,4.8,0.,4.8,1.,4.8,0.,4.8
1989-08-24T12:13:22.380 ,1,0,0.,4.8,1.,4.8,0.,4.8,0.,4.8
1989-08-24T12:13:27.180 ,1,0,0.,4.8,0.,4.8,0.,4.8,0.,4.8
1989-08-24T12:13:31.980 ,1,0,0.,4.8,0.,4.8,0.,4.8,0.,4.8
1989-08-24T12:13:36.780 ,0,0,0.,4.8,0.,4.8,1.,4.8,0.,4.8
1989-08-24T12:13:41.580 ,0,0,0.,4.8,1.,4.8,0.,4.8,0.,4.8
1989-08-24T12:13:46.380 ,0,0,0.,4.8,2.,4.8,0.,4.8,0.,4.8
1989-08-24T12:13:51.180 ,0,0,0.,4.8,0.,4.8,0.,4.8,0.,4.8
1989-08-24T12:13:55.980 ,0,0,0.,4.8,0.,4.8,0.,4.8,0.,4.8
1989-08-24T12:14:00.780 ,0,0,0.,4.8,0.,4.8,0.,4.8,0.,4.8
1989-08-24T12:14:05.580 ,0,0,0.,4.8,1.,4.8,0.,4.8,0.,4.8
1989-08-24T12:14:10.380 ,0,0,0.,4.8,1.,4.8,0.,4.8,1.,4.8
1989-08-24T12:14:15.180 ,0,0,0.,4.8,0.,4.8,0.,4.8,0.,4.8
1989-08-24T12:14:19.980 ,0,0,0.,4.8,2.,4.8,0.,4.8,0.,4.8
1989-08-24T12:14:24.780 ,0,0,0.,4.8,0.,4.8,0.,4.8,0.,4.8
1989-08-24T12:14:29.580 ,0,0,0.,4.8,0.,4.8,0.,4.8,0.,4.8
1989-08-24T12:14:34.380 ,0,0,0.,4.8,0.,4.8,0.,4.8,0.,4.8
1989-08-24T12:14:39.180 ,0,0,0.,4.8,1.,4.8,1.,4.8,0.,4.8
1989-08-24T12:14:43.980 ,0,0,0.,4.8,1.,4.8,0.,4.8,0.,4.8
1989-08-24T12:14:48.780 ,0,0,0.,4.8,1.,4.8,0.,4.8,0.,4.8
1989-08-24T12:14:53.580 ,0,0,0.,4.8,1.,4.8,0.,4.8,0.,4.8
1989-08-24T12:14:58.380 ,0,0,0.,4.8,2.,4.8,0.,4.8,0.,4.8
1989-08-24T12:15:03.180 ,0,0,0.,4.8,1.,4.8,1.,4.8,0.,4.8
1989-08-24T12:15:07.980 ,0,0,0.,4.8,1.,4.8,0.,4.8,0.,4.8
1989-08-24T12:15:12.780 ,1,0,0.,4.8,1.,4.8,0.,4.8,0.,4.8
1989-08-24T12:15:17.580 ,1,0,0.,4.8,0.,4.8,0.,4.8,0.,4.8
1989-08-24T12:15:22.380 ,1,0,0.,4.8,0.,4.8,0.,4.8,0.,4.8
1989-08-24T12:15:27.180 ,1,0,0.,4.8,0.,4.8,0.,4.8,0.,4.8
1989-08-24T12:15:31.980 ,1,0,0.,4.8,0.,4.8,0.,4.8,0.,4.8
1989-08-24T12:15:36.780 ,1,0,0.,4.8,0.,4.8,0.,4.8,0.,4.8
1989-08-24T12:15:41.580 ,1,0,0.,4.8,0.,4.8,0.,4.8,0.,4.8
1989-08-24T12:15:46.380 ,1,0,0.,4.8,0.,4.8,0.,4.8,0.,4.8
1989-08-24T12:15:51.180 ,1,0,0.,4.8,1.,4.8,0.,4.8,0.,4.8
1989-08-24T12:15:55.980 ,1,0,0.,4.8,0.,4.8,1.,4.8,0.,4.8
1989-08-24T12:16:00.780 ,2,0,0.,4.8,0.,4.8,0.,4.8,1.,4.8
1989-08-24T12:16:05.580 ,2,0,0.,4.8,0.,4.8,0.,4.8,0.,4.8
1989-08-24T12:16:10.380 ,2,0,0.,4.8,0.,4.8,0.,4.8,0.,4.8
1989-08-24T12:16:15.180 ,2,0,0.,4.8,0.,4.8,0.,4.8,0.,4.8
1989-08-24T12:16:19.980 ,2,0,0.,4.8,0.,4.8,1.,4.8,0.,4.8
1989-08-24T12:16:24.780 ,2,0,0.,4.8,0.,4.8,0.,4.8,0.,4.8
1989-08-24T12:16:29.580 ,2,0,0.,4.8,0.,4.8,0.,4.8,0.,4.8
1989-08-24T12:16:34.380 ,2,0,0.,4.8,0.,4.8,0.,4.8,0.,4.8
1989-08-24T12:16:39.180 ,2,0,0.,4.8,0.,4.8,0.,4.8,1.,4.8
1989-08-24T12:16:43.980 ,2,0,0.,4.8,3.,4.8,0.,4.8,0.,4.8
1989-08-24T12:16:48.780 ,3,0,0.,4.8,0.,4.8,0.,4.8,0.,4.8
1989-08-24T12:16:53.580 ,3,0,0.,4.8,1.,4.8,0.,4.8,0.,4.8
1989-08-24T12:16:58.380 ,3,0,0.,4.8,1.,4.8,0.,4.8,0.,4.8
1989-08-24T12:17:03.180 ,3,0,0.,4.8,3.,4.8,0.,4.8,0.,4.8
1989-08-24T12:17:07.980 ,3,0,0.,4.8,1.,4.8,1.,4.8,0.,4.8
1989-08-24T12:17:12.780 ,3,0,0.,4.8,0.,4.8,0.,4.8,0.,4.8
1989-08-24T12:17:17.580 ,3,0,0.,4.8,1.,4.8,0.,4.8,0.,4.8
1989-08-24T12:17:22.380 ,3,0,0.,4.8,1.,4.8,0.,4.8,0.,4.8
1989-08-24T12:17:27.180 ,3,0,0.,4.8,1.,4.8,0.,4.8,0.,4.8
1989-08-24T12:17:31.980 ,3,0,0.,4.8,0.,4.8,0.,4.8,0.,4.8
1989-08-24T12:17:36.780 ,4,0,0.,4.8,0.,4.8,0.,4.8,0.,4.8
1989-08-24T12:17:41.580 ,4,0,0.,4.8,1.,4.8,0.,4.8,0.,4.8
1989-08-24T12:17:46.380 ,4,0,0.,4.8,0.,4.8,0.,4.8,0.,4.8
1989-08-24T12:17:51.180 ,4,0,0.,4.8,0.,4.8,0.,4.8,0.,4.8
1989-08-24T12:17:55.980 ,4,0,0.,4.8,1.,4.8,0.,4.8,0.,4.8
1989-08-24T12:18:00.780 ,4,0,0.,4.8,0.,4.8,0.,4.8,0.,4.8
1989-08-24T12:18:05.580 ,4,0,0.,4.8,1.,4.8,1.,4.8,0.,4.8
1989-08-24T12:18:10.380 ,4,0,0.,4.8,0.,4.8,0.,4.8,0.,4.8
1989-08-24T12:18:15.180 ,4,0,0.,4.8,1.,4.8,1.,4.8,0.,4.8
1989-08-24T12:18:19.980 ,4,0,0.,4.8,0.,4.8,0.,4.8,0.,4.8
1989-08-24T12:18:24.780 ,5,0,0.,4.8,0.,4.8,0.,4.8,0.,4.8
1989-08-24T12:18:29.580 ,5,0,0.,4.8,0.,4.8,0.,4.8,1.,4.8
1989-08-24T12:18:34.380 ,5,0,0.,4.8,0.,4.8,0.,4.8,0.,4.8
1989-08-24T12:18:39.180 ,5,0,0.,4.8,0.,4.8,0.,4.8,0.,4.8
1989-08-24T12:18:43.980 ,5,0,0.,4.8,0.,4.8,0.,4.8,0.,4.8
1989-08-24T12:18:48.780 ,5,0,0.,4.8,1.,4.8,0.,4.8,0.,4.8
1989-08-24T12:18:53.580 ,5,0,0.,4.8,1.,4.8,0.,4.8,0.,4.8
1989-08-24T12:18:58.380 ,5,0,0.,4.8,2.,4.8,1.,4.8,0.,4.8
1989-08-24T12:19:03.180 ,5,0,0.,4.8,0.,4.8,0.,4.8,0.,4.8
1989-08-24T12:19:07.980 ,5,0,0.,4.8,0.,4.8,0.,4.8,0.,4.8
1989-08-24T12:19:12.780 ,6,0,0.,4.8,0.,4.8,0.,4.8,0.,4.8
1989-08-24T12:19:17.580 ,6,0,0.,4.8,1.,4.8,0.,4.8,0.,4.8
1989-08-24T12:19:22.380 ,6,0,0.,4.8,1.,4.8,0.,4.8,0.,4.8
1989-08-24T12:19:27.180 ,6,0,0.,4.8,4.,4.8,0.,4.8,0.,4.8
1989-08-24T12:19:31.980 ,6,0,0.,4.8,1.,4.8,0.,4.8,0.,4.8
1989-08-24T12:19:36.780 ,6,0,0.,4.8,0.,4.8,0.,4.8,0.,4.8
1989-08-24T12:19:41.580 ,6,0,0.,4.8,0.,4.8,0.,4.8,0.,4.8
1989-08-24T12:19:46.380 ,6,0,0.,4.8,0.,4.8,0.,4.8,0.,4.8
1989-08-24T12:19:51.180 ,6,0,0.,4.8,1.,4.8,0.,4.8,0.,4.8
1989-08-24T12:19:55.980 ,6,0,0.,4.8,0.,4.8,0.,4.8,1.,4.8
1989-08-24T12:20:00.780 ,7,0,0.,4.8,2.,4.8,0.,4.8,0.,4.8
1989-08-24T12:20:05.580 ,7,0,0.,4.8,1.,4.8,0.,4.8,0.,4.8
1989-08-24T12:20:10.380 ,7,0,0.,4.8,0.,4.8,0.,4.8,0.,4.8
1989-08-24T12:20:15.180 ,7,0,0.,4.8,1.,4.8,0.,4.8,0.,4.8
1989-08-24T12:20:19.980 ,7,0,0.,4.8,1.,4.8,0.,4.8,0.,4.8
1989-08-24T12:20:24.780 ,7,0,0.,4.8,0.,4.8,0.,4.8,0.,4.8
1989-08-24T12:20:29.580 ,7,0,0.,4.8,0.,4.8,0.,4.8,0.,4.8
1989-08-24T12:20:34.380 ,7,0,0.,4.8,0.,4.8,0.,4.8,0.,4.8
1989-08-24T12:20:39.180 ,7,0,0.,4.8,0.,4.8,0.,4.8,2.,4.8
1989-08-24T12:20:43.980 ,7,0,0.,4.8,2.,4.8,0.,4.8,0.,4.8
1989-08-24T12:20:48.780 ,7,0,0.,4.8,0.,4.8,0.,4.8,0.,4.8
1989-08-24T12:20:53.580 ,7,0,0.,4.8,1.,4.8,0.,4.8,1.,4.8
1989-08-24T12:20:58.380 ,7,0,0.,4.8,3.,4.8,0.,4.8,0.,4.8
1989-08-24T12:21:03.180 ,7,0,0.,4.8,1.,4.8,0.,4.8,0.,4.8
1989-08-24T12:21:07.980 ,7,0,0.,4.8,3.,4.8,0.,4.8,0.,4.8
1989-08-24T12:21:12.780 ,7,0,0.,4.8,0.,4.8,0.,4.8,0.,4.8
1989-08-24T12:21:17.580 ,7,0,0.,4.8,3.,4.8,0.,4.8,0.,4.8
1989-08-24T12:21:22.380 ,7,0,0.,4.8,1.,4.8,0.,4.8,0.,4.8
1989-08-24T12:21:27.180 ,7,0,0.,4.8,0.,4.8,0.,4.8,0.,4.8
1989-08-24T12:21:31.980 ,7,0,0.,4.8,1.,4.8,0.,4.8,0.,4.8
1989-08-24T12:21:36.780 ,6,0,0.,4.8,1.,4.8,0.,4.8,0.,4.8
1989-08-24T12:21:41.580 ,6,0,0.,4.8,0.,4.8,0.,4.8,0.,4.8
1989-08-24T12:21:46.380 ,6,0,0.,4.8,1.,4.8,0.,4.8,0.,4.8
1989-08-24T12:21:51.180 ,6,0,0.,4.8,1.,4.8,0.,4.8,0.,4.8
1989-08-24T12:21:55.980 ,6,0,0.,4.8,0.,4.8,0.,4.8,0.,4.8
1989-08-24T12:22:00.780 ,6,0,0.,4.8,1.,4.8,0.,4.8,0.,4.8
1989-08-24T12:22:05.580 ,6,0,0.,4.8,0.,4.8,0.,4.8,0.,4.8
1989-08-24T12:22:10.380 ,6,0,0.,4.8,0.,4.8,0.,4.8,0.,4.8
1989-08-24T12:22:15.180 ,6,0,0.,4.8,0.,4.8,0.,4.8,0.,4.8
1989-08-24T12:22:19.980 ,6,0,0.,4.8,1.,4.8,0.,4.8,0.,4.8
1989-08-24T12:22:24.780 ,5,0,0.,4.8,1.,4.8,1.,4.8,0.,4.8
1989-08-24T12:22:29.580 ,5,0,0.,4.8,0.,4.8,0.,4.8,0.,4.8
1989-08-24T12:22:34.380 ,5,0,0.,4.8,0.,4.8,0.,4.8,0.,4.8
1989-08-24T12:22:39.180 ,5,0,0.,4.8,0.,4.8,0.,4.8,0.,4.8
1989-08-24T12:22:43.980 ,5,0,0.,4.8,0.,4.8,0.,4.8,0.,4.8
1989-08-24T12:22:48.780 ,5,0,0.,4.8,0.,4.8,0.,4.8,0.,4.8
1989-08-24T12:22:53.580 ,5,0,0.,4.8,1.,4.8,0.,4.8,0.,4.8
1989-08-24T12:22:58.380 ,5,0,0.,4.8,1.,4.8,0.,4.8,0.,4.8
1989-08-24T12:23:03.180 ,5,0,0.,4.8,0.,4.8,0.,4.8,0.,4.8
1989-08-24T12:23:07.980 ,5,0,0.,4.8,1.,4.8,0.,4.8,0.,4.8
1989-08-24T12:23:12.780 ,4,0,0.,4.8,2.,4.8,0.,4.8,0.,4.8
1989-08-24T12:23:17.580 ,4,0,0.,4.8,2.,4.8,0.,4.8,0.,4.8
1989-08-24T12:23:22.380 ,4,0,0.,4.8,0.,4.8,0.,4.8,0.,4.8
1989-08-24T12:23:27.180 ,4,0,0.,4.8,0.,4.8,1.,4.8,0.,4.8
1989-08-24T12:23:31.980 ,4,0,0.,4.8,0.,4.8,0.,4.8,0.,4.8
1989-08-24T12:23:36.780 ,4,0,0.,4.8,0.,4.8,0.,4.8,0.,4.8
1989-08-24T12:23:41.580 ,4,0,0.,4.8,1.,4.8,0.,4.8,0.,4.8
1989-08-24T12:23:46.380 ,4,0,0.,4.8,0.,4.8,0.,4.8,0.,4.8
1989-08-24T12:23:51.180 ,4,0,0.,4.8,1.,4.8,0.,4.8,0.,4.8
1989-08-24T12:23:55.980 ,4,0,0.,4.8,1.,4.8,0.,4.8,0.,4.8
1989-08-24T12:24:00.780 ,3,0,0.,4.8,1.,4.8,0.,4.8,0.,4.8
1989-08-24T12:24:05.580 ,3,0,0.,4.8,0.,4.8,0.,4.8,0.,4.8
1989-08-24T12:24:10.380 ,3,0,0.,4.8,2.,4.8,0.,4.8,0.,4.8
1989-08-24T12:24:15.180 ,3,0,0.,4.8,0.,4.8,0.,4.8,0.,4.8
1989-08-24T12:24:19.980 ,3,0,0.,4.8,0.,4.8,0.,4.8,0.,4.8
1989-08-24T12:24:24.780 ,3,0,0.,4.8,0.,4.8,0.,4.8,0.,4.8
1989-08-24T12:24:29.580 ,3,0,0.,4.8,0.,4.8,0.,4.8,0.,4.8
1989-08-24T12:24:34.380 ,3,0,0.,4.8,0.,4.8,0.,4.8,0.,4.8
1989-08-24T12:24:39.180 ,3,0,0.,4.8,0.,4.8,0.,4.8,0.,4.8
1989-08-24T12:24:43.980 ,3,0,0.,4.8,0.,4.8,0.,4.8,0.,4.8
1989-08-24T12:24:48.780 ,2,0,0.,4.8,1.,4.8,0.,4.8,0.,4.8
1989-08-24T12:24:53.580 ,2,0,0.,4.8,1.,4.8,0.,4.8,0.,4.8
1989-08-24T12:24:58.380 ,2,0,0.,4.8,0.,4.8,0.,4.8,0.,4.8
1989-08-24T12:25:03.180 ,2,0,0.,4.8,0.,4.8,0.,4.8,1.,4.8
1989-08-24T12:25:07.980 ,2,0,0.,4.8,0.,4.8,0.,4.8,0.,4.8
1989-08-24T12:25:12.780 ,2,0,0.,4.8,0.,4.8,0.,4.8,0.,4.8
1989-08-24T12:25:17.580 ,2,0,0.,4.8,0.,4.8,0.,4.8,0.,4.8
1989-08-24T12:25:22.380 ,2,0,0.,4.8,1.,4.8,0.,4.8,0.,4.8
1989-08-24T12:25:27.180 ,2,0,0.,4.8,0.,4.8,0.,4.8,0.,4.8
1989-08-24T12:25:31.980 ,2,0,0.,4.8,0.,4.8,0.,4.8,0.,4.8
1989-08-24T12:25:36.780 ,1,0,0.,4.8,0.,4.8,0.,4.8,0.,4.8
1989-08-24T12:25:41.580 ,1,0,0.,4.8,0.,4.8,1.,4.8,0.,4.8
1989-08-24T12:25:46.380 ,1,0,0.,4.8,3.,4.8,0.,4.8,0.,4.8
1989-08-24T12:25:51.180 ,1,0,0.,4.8,0.,4.8,0.,4.8,0.,4.8
1989-08-24T12:25:55.980 ,1,0,0.,4.8,2.,4.8,0.,4.8,0.,4.8
1989-08-24T12:26:00.780 ,1,0,0.,4.8,1.,4.8,0.,4.8,0.,4.8
1989-08-24T12:26:05.580 ,1,0,0.,4.8,0.,4.8,0.,4.8,0.,4.8
1989-08-24T12:26:10.380 ,1,0,0.,4.8,0.,4.8,0.,4.8,0.,4.8
1989-08-24T12:26:15.180 ,1,0,0.,4.8,0.,4.8,0.,4.8,0.,4.8
1989-08-24T12:26:19.980 ,1,0,0.,4.8,0.,4.8,0.,4.8,0.,4.8
1989-08-24T12:26:24.780 ,0,0,0.,4.8,1.,4.8,0.,4.8,0.,4.8
1989-08-24T12:26:29.580 ,0,0,0.,4.8,0.,4.8,0.,4.8,0.,4.8
1989-08-24T12:26:34.380 ,0,0,0.,4.8,5.,4.8,0.,4.8,0.,4.8
1989-08-24T12:26:39.180 ,0,0,0.,4.8,0.,4.8,0.,4.8,0.,4.8
1989-08-24T12:26:43.980 ,0,0,0.,4.8,1.,4.8,1.,4.8,0.,4.8
1989-08-24T12:26:48.780 ,0,0,0.,4.8,0.,4.8,0.,4.8,0.,4.8
1989-08-24T12:26:53.580 ,0,0,0.,4.8,1.,4.8,0.,4.8,0.,4.8
1989-08-24T12:26:58.380 ,0,0,0.,4.8,0.,4.8,0.,4.8,0.,4.8
1989-08-24T12:27:03.180 ,0,0,0.,4.8,0.,4.8,0.,4.8,1.,4.8
1989-08-24T12:27:07.980 ,0,0,0.,4.8,0.,4.8,0.,4.8,0.,4.8
1989-08-24T12:27:12.780 ,0,0,0.,4.8,1.,4.8,0.,4.8,0.,4.8
1989-08-24T12:27:17.580 ,0,0,0.,4.8,2.,4.8,0.,4.8,0.,4.8
1989-08-24T12:27:22.380 ,0,0,0.,4.8,0.,4.8,0.,4.8,0.,4.8
1989-08-24T12:27:27.180 ,0,0,0.,4.8,0.,4.8,0.,4.8,0.,4.8
1989-08-24T12:27:31.980 ,0,0,0.,4.8,0.,4.8,0.,4.8,0.,4.8
1989-08-24T12:27:36.780 ,0,0,0.,4.8,0.,4.8,0.,4.8,0.,4.8
1989-08-24T12:27:41.580 ,0,0,0.,4.8,1.,4.8,0.,4.8,1.,4.8
1989-08-24T12:27:46.380 ,0,0,0.,4.8,0.,4.8,0.,4.8,0.,4.8
1989-08-24T12:27:51.180 ,0,0,0.,4.8,2.,4.8,0.,4.8,0.,4.8
1989-08-24T12:27:55.980 ,0,0,0.,4.8,2.,4.8,0.,4.8,0.,4.8
1989-08-24T12:28:00.780 ,1,0,0.,4.8,2.,4.8,0.,4.8,0.,4.8
1989-08-24T12:28:05.580 ,1,0,0.,4.8,2.,4.8,0.,4.8,0.,4.8
1989-08-24T12:28:10.380 ,1,0,0.,4.8,0.,4.8,0.,4.8,0.,4.8
1989-08-24T12:28:15.180 ,1,0,0.,4.8,2.,4.8,0.,4.8,0.,4.8
1989-08-24T12:28:19.980 ,1,0,0.,4.8,1.,4.8,0.,4.8,0.,4.8
1989-08-24T12:28:24.780 ,1,0,0.,4.8,0.,4.8,0.,4.8,0.,4.8
1989-08-24T12:28:29.580 ,1,0,0.,4.8,1.,4.8,0.,4.8,0.,4.8
1989-08-24T12:28:34.380 ,1,0,0.,4.8,1.,4.8,0.,4.8,0.,4.8
1989-08-24T12:28:39.180 ,1,0,0.,4.8,0.,4.8,0.,4.8,0.,4.8
1989-08-24T12:28:43.980 ,1,0,0.,4.8,0.,4.8,0.,4.8,0.,4.8
1989-08-24T12:28:48.780 ,2,0,0.,4.8,2.,4.8,0.,4.8,1.,4.8
1989-08-24T12:28:53.580 ,2,0,0.,4.8,0.,4.8,0.,4.8,0.,4.8
1989-08-24T12:28:58.380 ,2,0,0.,4.8,0.,4.8,0.,4.8,0.,4.8
1989-08-24T12:29:03.180 ,2,0,0.,4.8,0.,4.8,0.,4.8,0.,4.8
1989-08-24T12:29:07.980 ,2,0,0.,4.8,1.,4.8,0.,4.8,0.,4.8
1989-08-24T12:29:12.780 ,2,0,0.,4.8,1.,4.8,0.,4.8,0.,4.8
1989-08-24T12:29:17.580 ,2,0,0.,4.8,0.,4.8,0.,4.8,0.,4.8
1989-08-24T12:29:22.380 ,2,0,0.,4.8,1.,4.8,0.,4.8,0.,4.8
1989-08-24T12:29:27.180 ,2,0,0.,4.8,0.,4.8,0.,4.8,0.,4.8
1989-08-24T12:29:31.980 ,2,0,0.,4.8,0.,4.8,0.,4.8,0.,4.8
1989-08-24T12:29:36.780 ,3,0,0.,4.8,1.,4.8,0.,4.8,0.,4.8
1989-08-24T12:29:41.580 ,3,0,0.,4.8,0.,4.8,0.,4.8,0.,4.8
1989-08-24T12:29:46.380 ,3,0,0.,4.8,0.,4.8,0.,4.8,0.,4.8
1989-08-24T12:29:51.180 ,3,0,0.,4.8,2.,4.8,0.,4.8,1.,4.8
1989-08-24T12:29:55.980 ,3,0,0.,4.8,0.,4.8,0.,4.8,0.,4.8
1989-08-24T12:30:00.780 ,3,0,0.,4.8,0.,4.8,0.,4.8,0.,4.8
1989-08-24T12:30:05.580 ,3,0,0.,4.8,1.,4.8,1.,4.8,0.,4.8
1989-08-24T12:30:10.380 ,3,0,0.,4.8,0.,4.8,0.,4.8,0.,4.8
1989-08-24T12:30:15.180 ,3,0,0.,4.8,0.,4.8,0.,4.8,0.,4.8
1989-08-24T12:30:19.980 ,3,0,0.,4.8,1.,4.8,0.,4.8,0.,4.8
1989-08-24T12:30:24.780 ,4,0,0.,4.8,0.,4.8,1.,4.8,0.,4.8
1989-08-24T12:30:29.580 ,4,0,0.,4.8,1.,4.8,1.,4.8,0.,4.8
1989-08-24T12:30:34.380 ,4,0,0.,4.8,1.,4.8,0.,4.8,0.,4.8
1989-08-24T12:30:39.180 ,4,0,0.,4.8,1.,4.8,0.,4.8,0.,4.8
1989-08-24T12:30:43.980 ,4,0,0.,4.8,0.,4.8,1.,4.8,0.,4.8
1989-08-24T12:30:48.780 ,4,0,0.,4.8,0.,4.8,0.,4.8,0.,4.8
1989-08-24T12:30:53.580 ,4,0,0.,4.8,0.,4.8,0.,4.8,0.,4.8
1989-08-24T12:30:58.380 ,4,0,0.,4.8,0.,4.8,0.,4.8,0.,4.8
1989-08-24T12:31:03.180 ,4,0,0.,4.8,0.,4.8,0.,4.8,0.,4.8
1989-08-24T12:31:07.980 ,4,0,0.,4.8,1.,4.8,1.,4.8,1.,4.8
1989-08-24T12:31:12.780 ,5,0,0.,4.8,2.,4.8,0.,4.8,0.,4.8
1989-08-24T12:31:17.580 ,5,0,0.,4.8,0.,4.8,0.,4.8,0.,4.8
1989-08-24T12:31:22.380 ,5,0,0.,4.8,0.,4.8,0.,4.8,0.,4.8
1989-08-24T12:31:27.180 ,5,0,0.,4.8,0.,4.8,2.,4.8,0.,4.8
1989-08-24T12:31:31.980 ,5,0,0.,4.8,1.,4.8,0.,4.8,0.,4.8
1989-08-24T12:31:36.780 ,5,0,0.,4.8,1.,4.8,0.,4.8,0.,4.8
1989-08-24T12:31:41.580 ,5,0,0.,4.8,0.,4.8,0.,4.8,0.,4.8
1989-08-24T12:31:46.380 ,5,0,0.,4.8,0.,4.8,0.,4.8,0.,4.8
1989-08-24T12:31:51.180 ,5,0,0.,4.8,0.,4.8,0.,4.8,0.,4.8
1989-08-24T12:31:55.980 ,5,0,0.,4.8,0.,4.8,0.,4.8,0.,4.8
1989-08-24T12:32:00.780 ,6,0,0.,4.8,0.,4.8,0.,4.8,0.,4.8
1989-08-24T12:32:05.580 ,6,0,0.,4.8,0.,4.8,0.,4.8,0.,4.8
1989-08-24T12:32:10.380 ,6,0,0.,4.8,2.,4.8,0.,4.8,0.,4.8
1989-08-24T12:32:15.180 ,6,0,0.,4.8,0.,4.8,1.,4.8,0.,4.8
1989-08-24T12:32:19.980 ,6,0,0.,4.8,0.,4.8,0.,4.8,0.,4.8
1989-08-24T12:32:24.780 ,6,0,0.,4.8,0.,4.8,0.,4.8,0.,4.8
1989-08-24T12:32:29.580 ,6,0,0.,4.8,1.,4.8,0.,4.8,0.,4.8
1989-08-24T12:32:34.380 ,6,0,0.,4.8,0.,4.8,0.,4.8,0.,4.8
1989-08-24T12:32:39.180 ,6,0,0.,4.8,0.,4.8,0.,4.8,0.,4.8
1989-08-24T12:32:43.980 ,6,0,0.,4.8,1.,4.8,0.,4.8,0.,4.8
1989-08-24T12:32:48.780 ,7,0,0.,4.8,0.,4.8,1.,4.8,0.,4.8
1989-08-24T12:32:53.580 ,7,0,0.,4.8,0.,4.8,1.,4.8,0.,4.8
1989-08-24T12:32:58.380 ,7,0,0.,4.8,2.,4.8,0.,4.8,0.,4.8
1989-08-24T12:33:03.180 ,7,0,0.,4.8,0.,4.8,0.,4.8,1.,4.8
1989-08-24T12:33:07.980 ,7,0,0.,4.8,0.,4.8,0.,4.8,1.,4.8
1989-08-24T12:33:12.780 ,7,0,0.,4.8,1.,4.8,0.,4.8,1.,4.8
1989-08-24T12:33:17.580 ,7,0,0.,4.8,2.,4.8,0.,4.8,0.,4.8